KHAYYAM (53370 NORAD) Tracking and Keplerian Element Data

This shows tracking and keplerian element data for the satellite.

Feedback or suggestion? Click here.




ElementValue
Catalog53370
NameKHAYYAM
Epoch Orbit746
Epoch Day270.16927336
Epoch Year2022
RAAN171.2456
Inclination97.4315
Eccentricity0.0002204
Argument of Perigee73.7374
Mean Anonmoly67.4765
Mean Motion15.24510905
Decay Rate3.426E-05
L11 53370U 22096A 22270.16927336 .00003426 00000+0 14225-3 0 9998
L22 53370 97.4315 171.2456 0002204 73.7374 67.4765 15.24510905 7468

Live tracking and technical data element details for KHAYYAM (NORAD 53370). KHAYYAM can be tracked NOW for your location showing map with azimuth and elevation plus other details from your city location.

Track the satellite on the map from your city or location and see movement details for azimuth, elevation, latitude, longitude, range, height, and movement on the map or in text.







IsCatalogInMostPopularTable: catalog: 53370, numindb: 3
Update: records affected: 1



GetName: 53370 KHAYYAM

Hit Count: updated at: Thu, 29 Sep 2022 10:27:13 GMT